Погода в Саламо

Папуа-Новая Гвинея     9°40′00″S   150°47′34″E
темп.,
°C
ветер,
м/с
пор.,
м/с
влажн.,
%
обл.,
%
осадки,
мм/ч
давл.,
гПа
погр.,
м
1 марта, пн
пн101:00+27ссз2277100 0.2 1007230
04:00+27с3376100 0.6 1004264
07:00+27ссз4579100 0.0 1006343
10:00+28ссз3476100 0.0 1006496
13:00+29зсз1277100 0.0 1004510
16:00+28св3378100 0.3 1003377
19:00+28св1177100 4.6 100561
22:00+28ссз3379100 6.6 1006331
2 марта, вт
вт201:00+26ссз2281100 1.1 1005286
04:00+27с338099 1.1 1003272
07:00+27с1179100 0.8 1005190
10:00+27св3378100 2.6 1006299
13:00+26юз1284100 2.4 1004223
16:00+26св4484100 5.9 1003280
19:00+27ссз1279100 5.0 100596
22:00+27з1278100 7.8 1007277
3 марта, ср
ср301:00+27ссв3381100 2.4 1005263
04:00+27ссв2279100 2.5 1004296
07:00+27ссз2279100 0.1 1006267
10:00+27ссв2276100 0.3 1007313
13:00+28юв117674 2.5 1004305
16:00+28сз227786 6.5 1004394
19:00+27ссв3377100 3.4 1006197
22:00+27ссз2277100 5.1 1007210
4 марта, чт
чт401:00+26с2285100 2.5 1005216
04:00+24ююз0296100 43.4 1004158
07:00+25зюз1292100 20.6 1006199
10:00+26зюз3389100 26.4 1006273
13:00+26всв2285100 4.8 1004177
16:00+27всв2283100 5.9 1003315
19:00+27всв1181100 0.3 1005223
22:00+27ссз3378100 2.3 1007290
5 марта, пт
пт501:00+27с2279100 0.1 1004269
04:00+27с228191 0.3 1003205
07:00+27ссз227999 0.1 1005269
10:00+28сз367599 0.3 1006797
13:00+29сз347060 0.6 1003918
16:00+29св347150 1.8 1002664
19:00+29з117236 0.3 1004480
22:00+28ссз227841 4.1 1006143